| time (UTC) | temp C | wind direction | speed KPH | gust KPH | rain 1hr cm | rain 24hr cm | rain mn cm | humidity % | barometer mb |
| 20260508151822 | 19 | 179 | 14.5 | 24.1 | 0.00 | 0.00 | 0.00 | 56 | 1013.0 |
| 20260508151321 | 19 | 167 | 16.1 | 25.7 | 0.00 | 0.00 | 0.00 | 55 | 1013.0 |
| 20260508150818 | 19 | 194 | 11.3 | 24.1 | 0.00 | 0.00 | 0.00 | 57 | 1013.1 |
| 20260508150335 | 19 | 190 | 9.7 | 24.1 | 0.00 | 0.00 | 0.00 | 58 | 1013.2 |
| 20260508145819 | 19 | 207 | 11.3 | 25.7 | 0.00 | 0.00 | 0.00 | 58 | 1013.2 |
| 20260508145317 | 19 | 179 | 14.5 | 25.7 | 0.00 | 0.00 | 0.00 | 56 | 1013.4 |
| 20260508144816 | 19 | 176 | 14.5 | 29.0 | 0.00 | 0.00 | 0.00 | 55 | 1013.4 |
| 20260508144314 | 20 | 161 | 9.7 | 27.4 | 0.00 | 0.00 | 0.00 | 55 | 1013.3 |
| 20260508143852 | 20 | 195 | 11.3 | 29.0 | 0.00 | 0.00 | 0.00 | 55 | 1013.4 |
| 20260508143329 | 20 | 96 | 12.9 | 29.0 | 0.00 | 0.00 | 0.00 | 54 | 1013.6 |
| 20260508142322 | 20 | 206 | 11.3 | 25.7 | 0.00 | 0.00 | 0.00 | 55 | 1013.8 |
| 20260508141841 | 20 | 6 | 11.3 | 24.1 | 0.00 | 0.00 | 0.00 | 56 | 1013.9 |
| 20260508141318 | 20 | 160 | 12.9 | 24.1 | 0.00 | 0.00 | 0.00 | 55 | 1014.0 |
| 20260508140814 | 20 | 150 | 11.3 | 29.0 | 0.00 | 0.00 | 0.00 | 57 | 1014.1 |
| 20260508140332 | 20 | 176 | 14.5 | 29.0 | 0.00 | 0.00 | 0.00 | 55 | 1014.1 |
| 20260508135850 | 20 | 236 | 8.0 | 24.1 | 0.00 | 0.00 | 0.00 | 58 | 1014.2 |
| 20260508135327 | 20 | 168 | 12.9 | 24.1 | 0.00 | 0.00 | 0.00 | 54 | 1014.3 |
| 20260508134827 | 20 | 167 | 9.7 | 25.7 | 0.00 | 0.00 | 0.00 | 54 | 1014.3 |
| 20260508134324 | 20 | 219 | 14.5 | 25.7 | 0.00 | 0.00 | 0.00 | 55 | 1014.2 |
| 20260508133822 | 19 | 150 | 12.9 | 27.4 | 0.00 | 0.00 | 0.00 | 60 | 1014.2 |
| 20260508133443 | 19 | 160 | 9.7 | 27.4 | 0.00 | 0.00 | 0.00 | 66 | 1014.2 |
| 20260508132826 | 20 | 203 | 12.9 | 27.4 | 0.00 | 0.00 | 0.00 | 61 | 1014.2 |
| 20260508132323 | 20 | 192 | 12.9 | 25.7 | 0.00 | 0.00 | 0.00 | 52 | 1014.2 |
| 20260508131841 | 20 | 254 | 14.5 | 25.7 | 0.00 | 0.00 | 0.00 | 50 | 1014.0 |
| 20260508131318 | 20 | 195 | 12.9 | 25.7 | 0.00 | 0.00 | 0.00 | 50 | 1014.1 |
| 20260508130815 | 21 | 214 | 14.5 | 25.7 | 0.00 | 0.00 | 0.00 | 50 | 1014.2 |
| 20260508130313 | 20 | 50 | 12.9 | 30.6 | 0.00 | 0.00 | 0.00 | 50 | 1014.2 |
| 20260508125816 | 20 | 172 | 14.5 | 32.2 | 0.00 | 0.00 | 0.00 | 50 | 1014.3 |
| 20260508125325 | 20 | 231 | 11.3 | 32.2 | 0.00 | 0.00 | 0.00 | 51 | 1014.4 |
| 20260508124841 | 20 | 162 | 12.9 | 24.1 | 0.00 | 0.00 | 0.00 | 51 | 1014.3 |
| 20260508124318 | 20 | 155 | 12.9 | 22.5 | 0.00 | 0.00 | 0.00 | 51 | 1014.4 |
| 20260508123816 | 20 | 210 | 9.7 | 29.0 | 0.00 | 0.00 | 0.00 | 50 | 1014.5 |
| 20260508123314 | 20 | 192 | 14.5 | 29.0 | 0.00 | 0.00 | 0.00 | 50 | 1014.6 |
| 20260508122821 | 20 | 144 | 12.9 | 29.0 | 0.00 | 0.00 | 0.00 | 48 | 1014.7 |
| 20260508122339 | 20 | 167 | 12.9 | 29.0 | 0.00 | 0.00 | 0.00 | 51 | 1014.8 |
| 20260508121816 | 19 | 219 | 12.9 | 29.0 | 0.00 | 0.00 | 0.00 | 48 | 1014.8 |
| 20260508121331 | 19 | 195 | 14.5 | 27.4 | 0.00 | 0.00 | 0.00 | 51 | 1014.8 |
| 20260508120849 | 19 | 163 | 12.9 | 25.7 | 0.00 | 0.00 | 0.00 | 56 | 1014.9 |
| 20260508120323 | 19 | 160 | 9.7 | 19.3 | 0.00 | 0.00 | 0.00 | 58 | 1015.0 |
| 20260508115825 | 19 | 105 | 6.4 | 22.5 | 0.00 | 0.00 | 0.00 | 57 | 1014.9 |
| 20260508115324 | 19 | 120 | 8.0 | 22.5 | 0.00 | 0.00 | 0.00 | 58 | 1015.0 |
| 20260508114821 | 19 | 220 | 8.0 | 19.3 | 0.00 | 0.00 | 0.00 | 58 | 1015.1 |
| 20260508114320 | 19 | 180 | 9.7 | 20.9 | 0.00 | 0.00 | 0.00 | 58 | 1015.1 |
| 20260508113839 | 20 | 204 | 9.7 | 27.4 | 0.00 | 0.00 | 0.00 | 56 | 1015.1 |
| 20260508113335 | 19 | 139 | 9.7 | 25.7 | 0.00 | 0.00 | 0.00 | 55 | 1015.3 |
| 20260508112830 | 19 | 312 | 9.7 | 25.7 | 0.00 | 0.00 | 0.00 | 55 | 1015.2 |
| 20260508112328 | 19 | 143 | 12.9 | 25.7 | 0.00 | 0.00 | 0.00 | 53 | 1015.3 |
| 20260508111825 | 19 | 146 | 16.1 | 25.7 | 0.00 | 0.00 | 0.00 | 52 | 1015.4 |
| 20260508111340 | 19 | 171 | 11.3 | 22.5 | 0.00 | 0.00 | 0.00 | 53 | 1015.2 |
| 20260508110837 | 18 | 211 | 11.3 | 27.4 | 0.00 | 0.00 | 0.00 | 55 | 1015.4 |
| 20260508110334 | 18 | 162 | 14.5 | 25.7 | 0.00 | 0.00 | 0.00 | 55 | 1015.5 |
| 20260508105829 | 18 | 236 | 11.3 | 24.1 | 0.00 | 0.00 | 0.00 | 57 | 1015.5 |
| 20260508105347 | 18 | 202 | 11.3 | 20.9 | 0.00 | 0.00 | 0.00 | 59 | 1015.6 |
| 20260508104844 | 18 | 237 | 12.9 | 20.9 | 0.00 | 0.00 | 0.00 | 60 | 1015.7 |
| 20260508104322 | 17 | 132 | 6.4 | 19.3 | 0.00 | 0.00 | 0.00 | 63 | 1015.7 |
| 20260508103819 | 17 | 215 | 11.3 | 17.7 | 0.00 | 0.00 | 0.00 | 65 | 1015.9 |
| 20260508103338 | 18 | 359 | 3.2 | 17.7 | 0.00 | 0.00 | 0.00 | 65 | 1015.8 |
| 20260508102813 | 18 | 214 | 9.7 | 17.7 | 0.00 | 0.00 | 0.00 | 59 | 1015.8 |
| 20260508102331 | 18 | 193 | 6.4 | 17.7 | 0.00 | 0.00 | 0.00 | 59 | 1015.8 |
| 20260508101828 | 18 | 155 | 8.0 | 17.7 | 0.00 | 0.00 | 0.00 | 58 | 1015.8 |
| 20260508101327 | 18 | 184 | 6.4 | 22.5 | 0.00 | 0.00 | 0.00 | 59 | 1015.9 |
| 20260508100820 | 18 | 192 | 8.0 | 22.5 | 0.00 | 0.00 | 0.00 | 60 | 1015.9 |
| 20260508100317 | 18 | 221 | 11.3 | 20.9 | 0.00 | 0.00 | 0.00 | 60 | 1015.8 |
| 20260508095814 | 18 | 198 | 8.0 | 22.5 | 0.00 | 0.00 | 0.00 | 60 | 1015.8 |
| 20260508095331 | 18 | 185 | 6.4 | 14.5 | 0.00 | 0.00 | 0.00 | 60 | 1015.7 |
| 20260508094830 | 17 | 207 | 6.4 | 19.3 | 0.00 | 0.00 | 0.00 | 62 | 1015.8 |
| 20260508094327 | 17 | 140 | 11.3 | 20.9 | 0.00 | 0.00 | 0.00 | 61 | 1015.9 |
| 20260508093825 | 17 | 115 | 8.0 | 19.3 | 0.00 | 0.00 | 0.00 | 62 | 1015.9 |
| 20260508093323 | 17 | 259 | 8.0 | 19.3 | 0.00 | 0.00 | 0.00 | 61 | 1015.9 |
| 20260508092840 | 17 | 204 | 9.7 | 19.3 | 0.00 | 0.00 | 0.00 | 61 | 1015.9 |
| 20260508092314 | 17 | 214 | 9.7 | 19.3 | 0.00 | 0.00 | 0.00 | 64 | 1016.0 |
| 20260508091812 | 17 | 155 | 6.4 | 19.3 | 0.00 | 0.00 | 0.00 | 65 | 1016.1 |
| 20260508091330 | 17 | 164 | 8.0 | 19.3 | 0.00 | 0.00 | 0.00 | 65 | 1016.1 |
| 20260508090848 | 17 | 248 | 9.7 | 17.7 | 0.00 | 0.00 | 0.00 | 64 | 1016.1 |
| 20260508090326 | 17 | 150 | 8.0 | 19.3 | 0.00 | 0.00 | 0.00 | 65 | 1016.1 |
| 20260508085846 | 17 | 101 | 9.7 | 19.3 | 0.00 | 0.00 | 0.00 | 64 | 1016.0 |
| 20260508085322 | 17 | 198 | 4.8 | 16.1 | 0.00 | 0.00 | 0.00 | 66 | 1016.0 |
| 20260508084821 | 17 | 217 | 4.8 | 19.3 | 0.00 | 0.00 | 0.00 | 68 | 1016.1 |
| 20260508084318 | 16 | 269 | 8.0 | 19.3 | 0.00 | 0.00 | 0.00 | 68 | 1016.1 |
| 20260508083816 | 16 | 158 | 6.4 | 12.9 | 0.00 | 0.00 | 0.00 | 69 | 1016.1 |
| 20260508083315 | 16 | 81 | 4.8 | 11.3 | 0.00 | 0.00 | 0.00 | 70 | 1016.2 |
| 20260508082831 | 16 | 226 | 6.4 | 11.3 | 0.00 | 0.00 | 0.00 | 70 | 1016.1 |
| 20260508082327 | 16 | 132 | 6.4 | 8.0 | 0.00 | 0.00 | 0.00 | 71 | 1016.1 |
| 20260508081825 | 15 | 285 | 1.6 | 8.0 | 0.00 | 0.00 | 0.00 | 72 | 1016.1 |
| 20260508081321 | 15 | 278 | 1.6 | 11.3 | 0.00 | 0.00 | 0.00 | 72 | 1016.2 |
| 20260508080818 | 15 | 295 | 4.8 | 11.3 | 0.00 | 0.00 | 0.00 | 72 | 1016.1 |
| 20260508080335 | 15 | 133 | 4.8 | 9.7 | 0.00 | 0.00 | 0.00 | 74 | 1016.2 |
| 20260508075827 | 15 | 136 | 4.8 | 9.7 | 0.00 | 0.00 | 0.00 | 75 | 1016.1 |
| 20260508075343 | 14 | 164 | 1.6 | 8.0 | 0.00 | 0.00 | 0.00 | 75 | 1016.2 |
| 20260508074821 | 14 | 130 | 3.2 | 11.3 | 0.00 | 0.00 | 0.00 | 76 | 1016.2 |
| 20260508074319 | 14 | 250 | 6.4 | 11.3 | 0.00 | 0.00 | 0.00 | 77 | 1016.2 |
| 20260508073816 | 14 | 271 | 1.6 | 8.0 | 0.00 | 0.00 | 0.00 | 78 | 1016.1 |
| 20260508073314 | 14 | 140 | 3.2 | 8.0 | 0.00 | 0.00 | 0.00 | 80 | 1016.2 |
| 20260508072851 | 13 | 236 | 1.6 | 6.4 | 0.00 | 0.00 | 0.00 | 82 | 1016.3 |
| 20260508072326 | 13 | 141 | 3.2 | 8.0 | 0.00 | 0.00 | 0.00 | 82 | 1016.2 |
| 20260508071824 | 13 | 213 | 3.2 | 8.0 | 0.00 | 0.00 | 0.00 | 82 | 1016.2 |
| 20260508071320 | 13 | 193 | 3.2 | 9.7 | 0.00 | 0.00 | 0.00 | 83 | 1016.1 |
| 20260508070818 | 13 | 342 | 1.6 | 8.0 | 0.00 | 0.00 | 0.00 | 83 | 1016.1 |
| 20260508070316 | 13 | 280 | 1.6 | 6.4 | 0.00 | 0.00 | 0.00 | 83 | 1016.1 |
| 20260508065813 | 13 | 251 | 3.2 | 6.4 | 0.00 | 0.00 | 0.00 | 83 | 1016.0 |
| 20260508065331 | 13 | 333 | 0.0 | 6.4 | 0.00 | 0.00 | 0.00 | 83 | 1015.9 |
| 20260508064827 | 13 | 328 | 1.6 | 8.0 | 0.00 | 0.00 | 0.00 | 83 | 1015.9 |
| 20260508064326 | 12 | 333 | 3.2 | 8.0 | 0.00 | 0.00 | 0.00 | 83 | 1015.9 |
| 20260508063824 | 12 | 332 | 1.6 | 8.0 | 0.00 | 0.00 | 0.00 | 83 | 1016.0 |
| 20260508063323 | 12 | 330 | 1.6 | 6.4 | 0.00 | 0.00 | 0.00 | 83 | 1015.9 |
| 20260508062840 | 12 | 164 | 1.6 | 6.4 | 0.00 | 0.00 | 0.00 | 83 | 1015.9 |
| 20260508062319 | 12 | 116 | 1.6 | 4.8 | 0.00 | 0.00 | 0.00 | 83 | 1015.9 |
| 20260508061830 | 12 | 310 | 1.6 | 4.8 | 0.00 | 0.00 | 0.00 | 83 | 1015.8 |
| 20260508061329 | 12 | 322 | 1.6 | 4.8 | 0.00 | 0.00 | 0.00 | 83 | 1015.8 |
| 20260508060827 | 12 | 311 | 1.6 | 4.8 | 0.00 | 0.00 | 0.00 | 83 | 1015.8 |
| 20260508060327 | 12 | 38 | 1.6 | 4.8 | 0.00 | 0.00 | 0.00 | 83 | 1015.8 |
| 20260508055824 | 12 | 333 | 1.6 | 4.8 | 0.00 | 0.00 | 0.00 | 83 | 1015.7 |
| 20260508055341 | 12 | 122 | 1.6 | 4.8 | 0.00 | 0.00 | 0.00 | 83 | 1015.6 |
| 20260508054817 | 12 | 297 | 0.0 | 4.8 | 0.00 | 0.00 | 0.00 | 83 | 1015.5 |
| 20260508054316 | 12 | 323 | 0.0 | 4.8 | 0.00 | 0.00 | 0.00 | 83 | 1015.5 |
| 20260508053814 | 12 | 283 | 1.6 | 4.8 | 0.00 | 0.00 | 0.00 | 83 | 1015.5 |
| 20260508053333 | 12 | 333 | 0.0 | 4.8 | 0.00 | 0.00 | 0.00 | 83 | 1015.5 |
| 20260508052829 | 12 | 129 | 1.6 | 4.8 | 0.00 | 0.00 | 0.00 | 83 | 1015.4 |
| 20260508052349 | 12 | 295 | 0.0 | 4.8 | 0.00 | 0.00 | 0.00 | 84 | 1015.4 |
| 20260508051825 | 12 | 303 | 1.6 | 9.7 | 0.00 | 0.00 | 0.00 | 84 | 1015.4 |
| 20260508051324 | 12 | 354 | 1.6 | 9.7 | 0.00 | 0.00 | 0.00 | 84 | 1015.3 |
| 20260508050822 | 12 | 323 | 1.6 | 4.8 | 0.00 | 0.00 | 0.00 | 84 | 1015.3 |
| 20260508050357 | 12 | 338 | 0.0 | 4.8 | 0.00 | 0.00 | 0.00 | 83 | 1015.2 |
| 20260508045814 | 12 | 346 | 1.6 | 4.8 | 0.00 | 0.00 | 0.00 | 83 | 1015.1 |
| 20260508045330 | 12 | 340 | 0.0 | 4.8 | 0.00 | 0.00 | 0.00 | 82 | 1015.0 |
| 20260508044828 | 12 | 40 | 1.6 | 3.2 | 0.00 | 0.00 | 0.00 | 82 | 1015.1 |
| 20260508044325 | 12 | 330 | 0.0 | 4.8 | 0.00 | 0.00 | 0.00 | 82 | 1015.1 |
| 20260508043823 | 13 | 307 | 1.6 | 6.4 | 0.00 | 0.00 | 0.00 | 82 | 1015.2 |
| 20260508043341 | 12 | 160 | 3.2 | 8.0 | 0.00 | 0.00 | 0.00 | 82 | 1015.3 |
| 20260508042816 | 12 | 2 | 3.2 | 8.0 | 0.00 | 0.00 | 0.00 | 81 | 1015.3 |
| 20260508042312 | 12 | 105 | 4.8 | 11.3 | 0.00 | 0.00 | 0.00 | 80 | 1015.4 |
| 20260508041851 | 12 | 53 | 4.8 | 14.5 | 0.00 | 0.00 | 0.00 | 80 | 1015.4 |
| 20260508041329 | 12 | 159 | 6.4 | 14.5 | 0.00 | 0.00 | 0.00 | 80 | 1015.3 |
| 20260508040824 | 12 | 168 | 3.2 | 8.0 | 0.00 | 0.00 | 0.00 | 81 | 1015.4 |
| 20260508040324 | 12 | 298 | 1.6 | 6.4 | 0.00 | 0.00 | 0.00 | 81 | 1015.3 |
| 20260508035820 | 12 | 131 | 1.6 | 6.4 | 0.00 | 0.00 | 0.00 | 80 | 1015.2 |
| 20260508035318 | 12 | 355 | 1.6 | 6.4 | 0.00 | 0.00 | 0.00 | 80 | 1015.3 |
| 20260508034816 | 12 | 338 | 1.6 | 6.4 | 0.00 | 0.00 | 0.00 | 80 | 1015.4 |
| 20260508034314 | 12 | 354 | 0.0 | 6.4 | 0.00 | 0.00 | 0.00 | 80 | 1015.4 |
| 20260508033831 | 12 | 165 | 1.6 | 6.4 | 0.00 | 0.00 | 0.00 | 79 | 1015.4 |
| 20260508033331 | 12 | 317 | 1.6 | 4.8 | 0.00 | 0.00 | 0.00 | 79 | 1015.4 |
| 20260508032827 | 12 | 347 | 1.6 | 6.4 | 0.00 | 0.00 | 0.00 | 79 | 1015.3 |
| 20260508032348 | 12 | 1 | 1.6 | 6.4 | 0.00 | 0.00 | 0.00 | 79 | 1015.2 |
| 20260508031824 | 12 | 332 | 1.6 | 6.4 | 0.00 | 0.00 | 0.00 | 79 | 1015.2 |
| 20260508031324 | 12 | 263 | 3.2 | 8.0 | 0.00 | 0.00 | 0.00 | 79 | 1015.2 |
| 20260508030822 | 12 | 13 | 3.2 | 8.0 | 0.00 | 0.00 | 0.00 | 79 | 1015.2 |
| 20260508030321 | 12 | 299 | 1.6 | 6.4 | 0.00 | 0.00 | 0.00 | 79 | 1015.3 |
| 20260508025818 | 12 | 323 | 1.6 | 6.4 | 0.00 | 0.00 | 0.00 | 79 | 1015.4 |
| 20260508025316 | 12 | 276 | 1.6 | 6.4 | 0.00 | 0.00 | 0.00 | 79 | 1015.5 |
| 20260508024813 | 12 | 321 | 3.2 | 6.4 | 0.00 | 0.00 | 0.00 | 79 | 1015.5 |
| 20260508024332 | 12 | 278 | 3.2 | 6.4 | 0.00 | 0.00 | 0.00 | 79 | 1015.5 |
| 20260508023328 | 12 | 16 | 3.2 | 8.0 | 0.00 | 0.00 | 0.00 | 79 | 1015.5 |
| 20260508022840 | 12 | 324 | 1.6 | 6.4 | 0.00 | 0.00 | 0.00 | 79 | 1015.6 |
| 20260508022317 | 12 | 83 | 1.6 | 4.8 | 0.00 | 0.00 | 0.00 | 79 | 1015.7 |
| 20260508021814 | 12 | 339 | 1.6 | 6.4 | 0.00 | 0.00 | 0.00 | 79 | 1015.8 |
| 20260508021351 | 13 | 347 | 1.6 | 6.4 | 0.00 | 0.00 | 0.00 | 78 | 1015.7 |
| 20260508020828 | 13 | 17 | 1.6 | 6.4 | 0.00 | 0.00 | 0.00 | 78 | 1015.8 |
| 20260508020339 | 13 | 352 | 1.6 | 6.4 | 0.00 | 0.00 | 0.00 | 78 | 1015.8 |
| 20260508015822 | 13 | 314 | 1.6 | 6.4 | 0.00 | 0.00 | 0.00 | 78 | 1015.9 |
| 20260508015321 | 13 | 27 | 1.6 | 6.4 | 0.00 | 0.00 | 0.00 | 78 | 1015.9 |
| 20260508014819 | 13 | 343 | 1.6 | 6.4 | 0.00 | 0.00 | 0.00 | 78 | 1016.0 |
| 20260508014313 | 13 | 74 | 1.6 | 6.4 | 0.00 | 0.00 | 0.00 | 78 | 1016.1 |
| 20260508013812 | 13 | 3 | 1.6 | 6.4 | 0.00 | 0.00 | 0.00 | 78 | 1016.0 |
| 20260508013331 | 13 | 297 | 1.6 | 6.4 | 0.00 | 0.00 | 0.00 | 78 | 1016.1 |
| 20260508012826 | 13 | 15 | 1.6 | 6.4 | 0.00 | 0.00 | 0.00 | 78 | 1016.1 |
| 20260508012324 | 13 | 302 | 1.6 | 4.8 | 0.00 | 0.00 | 0.00 | 78 | 1016.2 |
| 20260508011820 | 13 | 292 | 1.6 | 4.8 | 0.00 | 0.00 | 0.00 | 77 | 1016.3 |
| 20260508011339 | 13 | 131 | 1.6 | 8.0 | 0.00 | 0.00 | 0.00 | 77 | 1016.4 |
| 20260508010814 | 13 | 11 | 1.6 | 6.4 | 0.00 | 0.00 | 0.00 | 76 | 1016.4 |
| 20260508010332 | 13 | 285 | 1.6 | 3.2 | 0.00 | 0.00 | 0.00 | 76 | 1016.5 |
| 20260508005827 | 13 | 344 | 0.0 | 3.2 | 0.00 | 0.00 | 0.00 | 75 | 1016.6 |
| 20260508005324 | 13 | 127 | 1.6 | 3.2 | 0.00 | 0.00 | 0.00 | 75 | 1016.6 |
| 20260508004819 | 13 | 332 | 0.0 | 1.6 | 0.00 | 0.00 | 0.00 | 75 | 1016.6 |
| 20260508004317 | 14 | 335 | 0.0 | 1.6 | 0.00 | 0.00 | 0.00 | 74 | 1016.6 |
| 20260508003816 | 14 | 335 | 0.0 | 1.6 | 0.00 | 0.00 | 0.00 | 74 | 1016.6 |
| 20260508003314 | 14 | 284 | 0.0 | 3.2 | 0.00 | 0.00 | 0.00 | 73 | 1016.6 |
| 20260508002829 | 14 | 271 | 1.6 | 3.2 | 0.00 | 0.00 | 0.00 | 72 | 1016.7 |
| 20260508002327 | 14 | 303 | 0.0 | 3.2 | 0.00 | 0.00 | 0.00 | 72 | 1016.8 |
| 20260508001842 | 14 | 313 | 0.0 | 3.2 | 0.00 | 0.00 | 0.00 | 72 | 1016.6 |
| 20260508001319 | 14 | 328 | 0.0 | 4.8 | 0.00 | 0.00 | 0.00 | 72 | 1016.5 |
| 20260508000837 | 14 | 323 | 0.0 | 6.4 | 0.00 | 0.00 | 0.00 | 73 | 1016.5 |
| 20260508000315 | 14 | 314 | 1.6 | 6.4 | 0.00 | 0.00 | 0.00 | 72 | 1016.5 |
| 20260507235839 | 14 | 335 | 1.6 | 4.8 | 0.00 | 0.00 | 0.00 | 72 | 1016.6 |
| 20260507235316 | 14 | 316 | 1.6 | 4.8 | 0.00 | 0.00 | 0.00 | 72 | 1016.6 |
| 20260507234834 | 14 | 336 | 1.6 | 4.8 | 0.00 | 0.00 | 0.00 | 71 | 1016.6 |
| 20260507234329 | 14 | 329 | 0.0 | 3.2 | 0.00 | 0.00 | 0.00 | 71 | 1016.6 |
| 20260507233846 | 14 | 327 | 0.0 | 3.2 | 0.00 | 0.00 | 0.00 | 71 | 1016.8 |
| 20260507233324 | 14 | 302 | 0.0 | 3.2 | 0.00 | 0.00 | 0.00 | 72 | 1016.8 |
| 20260507232821 | 14 | 324 | 0.0 | 6.4 | 0.00 | 0.00 | 0.00 | 72 | 1016.8 |
| 20260507232318 | 14 | 303 | 0.0 | 3.2 | 0.00 | 0.00 | 0.00 | 73 | 1016.9 |
| 20260507231816 | 14 | 303 | 1.6 | 3.2 | 0.00 | 0.00 | 0.00 | 72 | 1016.9 |
| 20260507231313 | 14 | 322 | 0.0 | 3.2 | 0.00 | 0.00 | 0.00 | 72 | 1017.0 |
| 20260507230830 | 15 | 332 | 0.0 | 6.4 | 0.00 | 0.00 | 0.00 | 73 | 1017.0 |
| 20260507230328 | 14 | 326 | 4.8 | 6.4 | 0.00 | 0.00 | 0.00 | 72 | 1016.8 |
| 20260507225838 | 15 | 327 | 0.0 | 1.6 | 0.00 | 0.00 | 0.00 | 71 | 1016.9 |
| 20260507225315 | 15 | 327 | 0.0 | 4.8 | 0.00 | 0.00 | 0.00 | 71 | 1017.1 |
| 20260507224814 | 15 | 327 | 3.2 | 4.8 | 0.00 | 0.00 | 0.00 | 71 | 1016.9 |
| 20260507224313 | 15 | 330 | 1.6 | 6.4 | 0.00 | 0.00 | 0.00 | 72 | 1016.9 |
| 20260507223813 | 15 | 317 | 3.2 | 9.7 | 0.00 | 0.00 | 0.00 | 72 | 1016.9 |
| 20260507222829 | 15 | 324 | 6.4 | 9.7 | 0.00 | 0.00 | 0.00 | 73 | 1016.9 |
| 20260507222326 | 15 | 325 | 6.4 | 9.7 | 0.00 | 0.00 | 0.00 | 72 | 1017.1 |
| 20260507221823 | 15 | 340 | 4.8 | 9.7 | 0.00 | 0.00 | 0.00 | 72 | 1017.2 |
| 20260507221338 | 15 | 330 | 4.8 | 9.7 | 0.00 | 0.00 | 0.00 | 72 | 1017.3 |
| 20260507220814 | 15 | 327 | 8.0 | 9.7 | 0.00 | 0.00 | 0.00 | 71 | 1017.4 |
| 20260507220314 | 15 | 354 | 6.4 | 8.0 | 0.00 | 0.00 | 0.00 | 72 | 1017.4 |
| 20260507215818 | 15 | 322 | 6.4 | 9.7 | 0.00 | 0.00 | 0.00 | 71 | 1017.4 |
| 20260507215315 | 15 | 326 | 8.0 | 11.3 | 0.00 | 0.00 | 0.00 | 69 | 1017.4 |
| 20260507214852 | 15 | 326 | 8.0 | 9.7 | 0.00 | 0.00 | 0.00 | 70 | 1017.5 |
| 20260507214329 | 15 | 341 | 4.8 | 9.7 | 0.00 | 0.00 | 0.00 | 70 | 1017.5 |
| 20260507213826 | 15 | 316 | 8.0 | 9.7 | 0.00 | 0.00 | 0.00 | 71 | 1017.4 |
| 20260507213325 | 15 | 340 | 4.8 | 8.0 | 0.00 | 0.00 | 0.00 | 72 | 1017.6 |
| 20260507212842 | 15 | 334 | 3.2 | 6.4 | 0.00 | 0.00 | 0.00 | 71 | 1017.9 |
| 20260507212319 | 15 | 324 | 1.6 | 4.8 | 0.00 | 0.00 | 0.00 | 72 | 1017.9 |
| 20260507211818 | 15 | 326 | 0.0 | 4.8 | 0.00 | 0.00 | 0.00 | 71 | 1018.0 |
| 20260507211316 | 15 | 345 | 3.2 | 9.7 | 0.00 | 0.00 | 0.00 | 72 | 1017.8 |
| 20260507210813 | 15 | 351 | 3.2 | 9.7 | 0.00 | 0.00 | 0.00 | 70 | 1017.8 |
| 20260507210333 | 15 | 334 | 3.2 | 8.0 | 0.00 | 0.00 | 0.00 | 72 | 1017.8 |
| 20260507205830 | 15 | 350 | 3.2 | 9.7 | 0.00 | 0.00 | 0.00 | 72 | 1017.7 |
| 20260507205328 | 15 | 309 | 1.6 | 9.7 | 0.00 | 0.00 | 0.00 | 71 | 1017.7 |
| 20260507204826 | 15 | 360 | 3.2 | 9.7 | 0.00 | 0.00 | 0.00 | 71 | 1017.8 |
| 20260507204324 | 15 | 342 | 4.8 | 9.7 | 0.00 | 0.00 | 0.00 | 71 | 1017.7 |
| 20260507203823 | 15 | 10 | 3.2 | 9.7 | 0.00 | 0.00 | 0.00 | 71 | 1017.7 |
| 20260507203322 | 15 | 342 | 6.4 | 9.7 | 0.00 | 0.00 | 0.00 | 71 | 1017.7 |
| 20260507202819 | 15 | 342 | 3.2 | 9.7 | 0.00 | 0.00 | 0.00 | 73 | 1017.6 |
| 20260507202316 | 15 | 312 | 6.4 | 9.7 | 0.00 | 0.00 | 0.00 | 73 | 1017.6 |
| 20260507201814 | 15 | 343 | 6.4 | 14.5 | 0.00 | 0.00 | 0.00 | 73 | 1017.4 |
| 20260507201332 | 15 | 11 | 6.4 | 14.5 | 0.00 | 0.00 | 0.00 | 73 | 1017.4 |
| 20260507200831 | 15 | 333 | 4.8 | 8.0 | 0.00 | 0.00 | 0.00 | 72 | 1017.4 |
| 20260507200329 | 15 | 316 | 3.2 | 8.0 | 0.00 | 0.00 | 0.00 | 72 | 1017.5 |
| 20260507195827 | 15 | 321 | 3.2 | 8.0 | 0.00 | 0.00 | 0.00 | 72 | 1017.5 |
| 20260507195407 | 15 | 343 | 1.6 | 11.3 | 0.00 | 0.00 | 0.00 | 71 | 1017.4 |
| 20260507194819 | 15 | 6 | 6.4 | 12.9 | 0.00 | 0.00 | 0.00 | 73 | 1017.4 |
| 20260507194336 | 15 | 13 | 6.4 | 12.9 | 0.00 | 0.00 | 0.00 | 73 | 1017.3 |
| 20260507193830 | 15 | 352 | 6.4 | 9.7 | 0.00 | 0.00 | 0.00 | 72 | 1017.3 |
| 20260507193330 | 15 | 314 | 4.8 | 11.3 | 0.00 | 0.00 | 0.00 | 72 | 1017.2 |
| 20260507192825 | 15 | 354 | 6.4 | 11.3 | 0.00 | 0.00 | 0.00 | 71 | 1017.2 |
| 20260507192322 | 15 | 325 | 3.2 | 9.7 | 0.00 | 0.00 | 0.00 | 72 | 1017.2 |
| 20260507191841 | 15 | 345 | 3.2 | 9.7 | 0.00 | 0.00 | 0.00 | 72 | 1017.2 |
| 20260507191318 | 15 | 349 | 3.2 | 6.4 | 0.00 | 0.00 | 0.00 | 72 | 1017.2 |
| 20260507190816 | 15 | 336 | 3.2 | 9.7 | 0.00 | 0.00 | 0.00 | 71 | 1017.1 |
| 20260507190356 | 15 | 359 | 3.2 | 9.7 | 0.00 | 0.00 | 0.00 | 70 | 1017.1 |
| 20260507185813 | 15 | 26 | 4.8 | 9.7 | 0.00 | 0.00 | 0.00 | 70 | 1017.1 |
| 20260507185330 | 15 | 338 | 4.8 | 9.7 | 0.00 | 0.00 | 0.00 | 71 | 1017.1 |
| 20260507184828 | 15 | 321 | 3.2 | 11.3 | 0.00 | 0.00 | 0.00 | 70 | 1017.1 |
| 20260507184347 | 15 | 333 | 3.2 | 11.3 | 0.00 | 0.00 | 0.00 | 70 | 1017.1 |
| 20260507183843 | 15 | 356 | 6.4 | 11.3 | 0.00 | 0.00 | 0.00 | 69 | 1017.0 |
| 20260507183320 | 16 | 322 | 6.4 | 11.3 | 0.00 | 0.00 | 0.00 | 69 | 1017.1 |
| 20260507182835 | 16 | 6 | 3.2 | 9.7 | 0.00 | 0.00 | 0.00 | 68 | 1017.0 |
| 20260507182314 | 16 | 326 | 1.6 | 11.3 | 0.00 | 0.00 | 0.00 | 68 | 1017.0 |
| 20260507181831 | 16 | 323 | 4.8 | 11.3 | 0.00 | 0.00 | 0.00 | 68 | 1017.1 |
| 20260507181348 | 16 | 32 | 3.2 | 9.7 | 0.00 | 0.00 | 0.00 | 67 | 1017.1 |
| 20260507180842 | 16 | 302 | 4.8 | 11.3 | 0.00 | 0.00 | 0.00 | 69 | 1017.0 |
| 20260507180320 | 16 | 314 | 6.4 | 11.3 | 0.00 | 0.00 | 0.00 | 68 | 1017.0 |
| 20260507175823 | 16 | 333 | 4.8 | 9.7 | 0.00 | 0.00 | 0.00 | 68 | 1017.0 |
| 20260507175323 | 16 | 328 | 4.8 | 9.7 | 0.00 | 0.00 | 0.00 | 67 | 1016.9 |
| 20260507174821 | 16 | 350 | 8.0 | 11.3 | 0.00 | 0.00 | 0.00 | 69 | 1016.9 |
| 20260507174318 | 16 | 346 | 4.8 | 11.3 | 0.00 | 0.00 | 0.00 | 69 | 1016.9 |
| 20260507173837 | 16 | 342 | 4.8 | 11.3 | 0.00 | 0.00 | 0.00 | 71 | 1016.9 |
| 20260507173331 | 16 | 323 | 8.0 | 11.3 | 0.00 | 0.00 | 0.00 | 72 | 1016.9 |
| 20260507172828 | 16 | 342 | 6.4 | 11.3 | 0.00 | 0.00 | 0.00 | 71 | 1017.0 |
| 20260507172328 | 16 | 339 | 8.0 | 11.3 | 0.00 | 0.00 | 0.00 | 72 | 1017.0 |
| 20260507171826 | 16 | 333 | 8.0 | 12.9 | 0.00 | 0.00 | 0.00 | 70 | 1017.0 |
| 20260507171324 | 16 | 335 | 6.4 | 12.9 | 0.00 | 0.00 | 0.00 | 72 | 1016.9 |
| 20260507170821 | 16 | 316 | 8.0 | 12.9 | 0.00 | 0.00 | 0.00 | 72 | 1016.9 |
| 20260507170340 | 16 | 351 | 8.0 | 12.9 | 0.00 | 0.00 | 0.00 | 71 | 1016.9 |
| 20260507165818 | 16 | 348 | 8.0 | 14.5 | 0.00 | 0.00 | 0.00 | 72 | 1016.9 |
| 20260507165313 | 16 | 314 | 9.7 | 11.3 | 0.00 | 0.00 | 0.00 | 72 | 1016.9 |
| 20260507164831 | 16 | 316 | 9.7 | 12.9 | 0.00 | 0.00 | 0.00 | 72 | 1017.0 |
| 20260507164329 | 16 | 326 | 9.7 | 12.9 | 0.00 | 0.00 | 0.00 | 70 | 1017.0 |
| 20260507163844 | 16 | 3 | 8.0 | 14.5 | 0.00 | 0.00 | 0.00 | 72 | 1016.9 |
| 20260507163322 | 16 | 321 | 11.3 | 14.5 | 0.00 | 0.00 | 0.00 | 72 | 1016.9 |
| 20260507162840 | 16 | 320 | 11.3 | 14.5 | 0.00 | 0.00 | 0.00 | 69 | 1016.8 |
| 20260507162315 | 16 | 305 | 8.0 | 14.5 | 0.00 | 0.00 | 0.00 | 70 | 1016.9 |
| 20260507161813 | 16 | 321 | 8.0 | 14.5 | 0.00 | 0.00 | 0.00 | 71 | 1016.9 |
| 20260507160826 | 16 | 345 | 8.0 | 16.1 | 0.00 | 0.00 | 0.00 | 71 | 1017.0 |
| 20260507160326 | 16 | 336 | 11.3 | 16.1 | 0.00 | 0.00 | 0.00 | 72 | 1017.0 |
| 20260507155822 | 16 | 354 | 9.7 | 16.1 | 0.00 | 0.00 | 0.00 | 71 | 1017.0 |
| 20260507155318 | 16 | 335 | 11.3 | 16.1 | 0.00 | 0.00 | 0.00 | 70 | 1017.0 |
| 20260507154815 | 16 | 349 | 9.7 | 16.1 | 0.00 | 0.00 | 0.00 | 71 | 1016.9 |
| 20260507154353 | 16 | 339 | 9.7 | 16.1 | 0.00 | 0.00 | 0.00 | 70 | 1016.9 |
| 20260507153850 | 17 | 348 | 9.7 | 12.9 | 0.00 | 0.00 | 0.00 | 70 | 1017.0 |
| 20260507153328 | 16 | 295 | 8.0 | 14.5 | 0.00 | 0.00 | 0.00 | 70 | 1017.0 |
| 20260507152826 | 16 | 347 | 9.7 | 14.5 | 0.00 | 0.00 | 0.00 | 70 | 1017.0 |
| 20260507152324 | 17 | 335 | 8.0 | 14.5 | 0.00 | 0.00 | 0.00 | 69 | 1017.0 |